[Iaude] MPEC C168: 2024 CJ5 [a=2.64,e=0.59,i=3.2,H=24.3]

mpec at cfa.harvard.edu mpec at cfa.harvard.edu
Wed Feb 14 15:27:48 EST 2024


M.P.E.C. 2024-C168                            Issued 2024 February 14, 20:26 UT

     The Minor Planet Electronic Circulars contain information on unusual
         minor planets, routine data on comets and natural satellites,
         and occasional editorial announcements.  They are published
    on behalf of Division F of the International Astronomical Union by the
          Minor Planet Center, Smithsonian Astrophysical Observatory,
                          Cambridge, MA 02138, U.S.A.
			  
             Prepared using the Tamkin Foundation Computer Network

                              MPC at CFA.HARVARD.EDU
            URL https://www.minorplanetcenter.net/    ISSN 1523-6714

                                    2024 CJ5                                    


Observations:
     K24C05J* C2024 02 13.22904206 58 42.600+27 14 22.87         21.45wXEC168F52
     K24C05J  C2024 02 13.24132506 58 46.334+27 14 44.78         21.78wXEC168F52
     K24C05J  C2024 02 13.25362206 58 50.098+27 15 06.86         21.42wXEC168F52
     K24C05J  C2024 02 13.38213206 59 29.182+27 18 46.69         20.48GVEC168F52
     K24C05J KB2024 02 13.78595 07 01 49.45 +27 29 39.0          20.5 RZEC168106
     K24C05J KB2024 02 13.79336 07 01 51.80 +27 29 52.0          21.6 RZEC168106
     K24C05J KB2024 02 13.80037 07 01 54.12 +27 30 04.1          21.4 RZEC168106
     K24C05J KC2024 02 13.80589907 01 55.89 +27 30 15.2          21.2 GVEC168L01
     K24C05J KB2024 02 13.80739 07 01 56.35 +27 30 16.1                ZEC168106
     K24C05J KC2024 02 13.80842507 01 56.71 +27 30 19.0          21.0 GVEC168L01
     K24C05J KC2024 02 13.81095007 01 57.41 +27 30 23.1          21.2 GVEC168L01
     K24C05J KC2024 02 13.81380407 01 58.40 +27 30 28.4          21.1 GVEC168L01
     K24C05J pC2024 02 13.81684907 01 59.39 +27 30 33.7          21.4 GVEC168L01
     K24C05J  C2024 02 14.09084807 03 36.204+27 38 24.85         21.2 GVEC168H01
     K24C05J  C2024 02 14.09651607 03 38.055+27 38 35.02         21.1 GVEC168H01
     K24C05J  C2024 02 14.10927407 03 42.197+27 38 57.65         21.2 GVEC168H01
     K24C05J  C2024 02 14.11558107 03 44.263+27 39 08.84         21.1 GVEC168H01
     K24C05J KC2024 02 14.12966607 03 48.71 +27 39 32.4          21.1 GXEC168858
     K24C05J KC2024 02 14.13694407 03 51.10 +27 39 45.2          20.8 GXEC168858
     K24C05J KC2024 02 14.14690107 03 54.34 +27 40 02.4          21.1 GXEC168858
     K24C05J KB2024 02 14.81202 07 07 52.04 +27 58 25.6          20.2 RZEC168106
     K24C05J KB2024 02 14.81869 07 07 54.36 +27 58 36.1          21.2 RZEC168106
     K24C05J KB2024 02 14.82536 07 07 56.57 +27 58 47.0          21.9 RZEC168106
     K24C05J KB2024 02 14.83232 07 07 58.96 +27 58 59.1          21.1 RZEC168106

Observer details:
106 Crni Vrh.  Observers H. Mikuz, J. Vales.  0.60-m f/3.3 reflector + CMO.
858 Tebbutt Observatory, Edgewood.  Observer F. B. Zoltowski.  0.51-m f/8.1
    Schmidt-Cassegrain + CCD.
F52 Pan-STARRS 2, Haleakala.  Observers J. Herman, T. Lowe, P. Minguez, A.
    Schultz, I. Smith.  Measurers K. Chambers, T. de Boer, J. Fairlamb, H.
    Gao, M. Huber, C.-C. Lin, E. Magnier, Y. Ramanjooloo, R. Wainscoat, R.
    Weryk.  1.8-m Ritchey-Chretien + CCD.
H01 Magdalena Ridge Observatory, Socorro.  Observers W. H. Ryan, E. V. Ryan.
    Measurer W. H. Ryan.  2.4-m f/8.9 Ritchey-Chretien + CCD.
L01 Visnjan Observatory, Tican.  Observer K. Korlevic.  1.0-m f/2.9 reflector
    + CCD.

Orbital elements:
2024 CJ5                                                 Earth MOID = 0.0915 AU
Epoch 2023 Sept. 13.0 TT = JDT 2460200.5                MPC                     
M 322.67875              (2000.0)            P               Q                  
n   0.23024339     Peri.   19.01510     -0.85837911     -0.51123827             
a   2.6363998      Node   130.16338     +0.46315040     -0.80802920             
e   0.5906090      Incl.    3.20080     +0.22062865     -0.29278703             
P   4.28           H   24.31          G   0.15           U   8                  
Residuals in seconds of arc
240213 F52  0.2+  0.0     240213 106  0.0   0.4-    240214 H01  0.0   0.0
240213 F52  0.2-  0.3-    240213 L01  0.0   0.0     240214 858  0.5-  0.1-
240213 F52  0.2-  0.2-    240213 L01  1.5-  0.3-    240214 858  0.2-  0.1+
240213 F52  0.1+  0.1+    240213 L01  0.6-  0.0     240214 858  0.0   0.0
240213 106  0.1+  0.2-    240213 L01  0.4-  0.1+    240214 106  0.1-  0.9+
240213 106  0.4-  0.1-    240214 H01  0.2+  0.0     240214 106  0.5+  0.0
240213 106  0.4+  0.3-    240214 H01  0.2+  0.0     240214 106  0.4-  0.4-
240213 L01  0.1-  0.5+    240214 H01  0.1-  0.0     240214 106  0.2-  0.1-

Ephemeris:
2024 CJ5                 a,e,i = 2.64, 0.59, 3                   q = 1.0793
Date    TT    R. A. (2000) Decl.     Delta      r    Elong.  Phase     V
2024 01 15    05 53 02.5 +17 13 43   0.2154  1.1805   153.7    21.7    22.4
...
2024 01 30    06 07 52.4 +21 08 37   0.1623  1.1182   142.5    32.4    22.0
...
2024 02 07    06 30 09.1 +24 20 54   0.1397  1.0962   139.5    35.8    21.7
...
2024 02 13    06 57 23.8 +27 07 50   0.1257  1.0854   139.2    36.5    21.5
2024 02 14    07 03 01.5 +27 36 04   0.1237  1.0841   139.3    36.4    21.4
2024 02 15    07 08 59.5 +28 04 00   0.1218  1.0830   139.5    36.3    21.4
...
2024 02 21    07 52 05.1 +30 33 14   0.1125  1.0793   141.7    34.6    21.2
...
2024 02 29    09 05 44.5 +31 50 05   0.1081  1.0828   146.9    30.0    21.0
...
2024 03 15    11 14 47.4 +25 33 11   0.1299  1.1142   155.8    21.4    21.2

A. U. Tomatic                (C) Copyright 2024 MPC           M.P.E.C. 2024-C168





More information about the Iaude mailing list